TURKMENALEM52E/MONACOSAT

Last updated on Sat Aug 15 2026 00:02:59 GMT+0000 (Coordinated Universal Time)

1 40617U 15023A 26226.57828278 .00000089 00000+0 00000+0 0 9999 2 40617 0.0316 95.0791 0002884 59.6617 68.4363 1.00271961 41436
UTC large
Height (km)
Speed (km/s)
/
Latitude / Longitude
Inclination (degrees)
Orbital Period (minutes)
Azimuth
Elevation
Range (km)
Doppler Factor

Next 0 passes for location: London (51.5072 / 0.1276)

No passes found over London.
TURKMENALEM52E/MONACOSAT